GEFSNGP_850_meantemp_012.txt.gz
Temperature
13 12 11 11 11 12 12 12 12 12 11 11 11 11 11 12 13 14 14 15 17 18 19 20 20 20 20 19 19 19 18 18 18 17 17 17 17 17 17 17 16 16 15 15
12 12 12 11 10 11 11 11 12 11 11 11 11 11 11 11 12 13 13 14 16 17 18 19 19 19 19 19 19 19 18 18 17 17 17 17 17 17 16 16 16 16 16 15
11 12 12 10 9 9 10 10 10 10 10 10 10 10 10 11 12 13 14 15 15 16 16 17 17 17 17 17 18 18 17 17 17 16 16 16 16 16 16 16 16 15 16 15
10 11 9 9 9 9 10 10 10 10 10 10 9 10 11 12 12 13 14 15 15 15 16 16 16 16 16 16 16 16 16 15 15 15 16 16 16 16 15 15 15 15 15 15
9 9 9 10 10 10 10 10 9 9 9 9 10 11 12 13 13 14 15 15 15 15 15 15 15 15 15 15 15 14 14 14 14 14 14 14 14 15 14 14 14 14 14 14
9 9 9 9 11 11 10 10 9 9 9 9 9 9 11 12 13 14 15 15 15 15 15 15 14 14 14 14 13 13 13 12 12 13 13 13 14 14 13 13 13 13 13 14
8 9 10 10 11 10 10 9 9 9 9 9 9 9 10 12 14 15 15 15 15 15 15 14 14 14 13 13 13 12 12 12 12 12 12 12 12 12 12 12 12 12 12 13
8 8 8 11 10 9 9 9 9 9 10 9 10 11 12 13 15 15 15 15 15 15 15 14 14 14 14 13 13 13 12 12 12 11 11 11 11 11 11 12 12 12 12 12
9 8 10 10 10 10 10 9 10 10 10 10 11 12 13 14 15 15 16 15 15 15 15 15 14 14 14 13 13 13 13 12 12 11 11 11 11 11 11 11 12 12 12 12
9 10 10 11 11 11 10 10 10 11 11 11 11 12 13 14 15 15 16 16 15 15 15 15 15 14 14 14 13 13 13 12 12 12 11 11 11 11 11 11 11 11 11 11
9 10 11 11 11 11 11 11 11 11 11 11 12 13 13 14 15 15 16 16 16 16 15 15 15 15 14 14 13 13 13 12 12 12 11 11 11 11 11 11 11 10 10 11
8 10 10 12 12 11 11 11 11 11 11 12 12 12 13 14 15 15 15 16 16 16 16 15 15 15 15 14 14 13 13 12 12 12 11 11 11 11 11 10 10 10 10 10
12 12 12 12 12 12 11 11 11 11 11 11 12 12 13 14 15 15 15 15 16 16 16 16 15 15 15 14 14 13 13 12 12 12 11 11 11 11 11 10 10 10 10 10
13 12 12 12 12 12 11 11 11 11 11 12 12 12 13 14 15 15 15 16 16 16 16 16 16 16 15 15 14 14 13 12 12 12 11 11 11 11 11 10 10 10 9 9
13 13 12 12 12 12 12 11 11 12 12 12 12 12 13 14 15 15 16 16 16 17 17 16 16 16 16 15 15 14 13 12 12 12 11 11 11 11 11 10 10 9 9 9
13 12 12 12 12 12 12 11 11 11 12 12 12 13 13 14 15 16 16 16 17 17 17 17 17 16 16 16 15 14 13 12 12 12 11 11 11 11 11 10 10 10 10 10
13 12 12 12 12 12 11 11 11 11 11 12 12 13 13 14 16 16 17 17 17 17 17 17 17 17 16 16 15 14 13 13 12 12 11 11 11 11 11 11 10 10 10 10
13 13 12 12 12 11 11 11 11 11 11 11 12 12 13 14 15 16 17 17 17 17 17 17 17 17 16 16 15 15 13 13 12 12 11 11 11 11 11 11 10 10 10 10
13 12 12 12 11 11 11 11 11 11 11 12 12 12 13 13 14 15 16 17 17 17 17 17 17 17 16 16 15 15 14 13 12 12 11 11 11 11 11 11 10 10 10 10
13 12 12 11 11 11 11 11 11 11 11 12 12 12 12 13 13 14 15 16 16 16 17 17 17 17 16 16 15 15 14 13 12 12 11 11 11 11 11 10 10 10 10 10
13 12 12 11 11 11 11 11 11 11 11 11 11 12 12 12 13 14 15 16 16 16 16 17 17 16 16 15 15 14 14 13 12 11 11 11 11 11 11 10 10 10 10 9
13 12 12 11 11 11 11 11 11 11 11 11 11 11 12 12 13 13 14 14 15 16 16 17 17 16 16 15 15 14 13 13 12 11 11 11 11 11 10 10 10 10 9 9
13 12 12 11 11 11 11 11 11 11 11 11 11 11 11 12 12 13 14 14 15 15 16 16 17 17 16 15 15 14 13 12 12 11 11 11 11 11 10 10 10 10 9 9
13 12 12 11 11 11 11 11 11 11 11 11 11 11 11 12 12 12 13 13 14 15 15 16 17 16 16 15 15 14 13 12 12 11 11 11 11 11 10 10 10 10 9 9
12 12 12 11 11 11 11 11 11 11 11 11 11 11 11 11 11 12 12 13 13 14 15 15 16 16 16 15 15 14 13 13 12 11 11 11 11 11 10 10 10 10 9 9
12 12 12 12 12 11 11 11 11 11 11 11 12 12 11 11 11 12 12 12 13 14 14 15 15 15 15 15 15 14 13 13 12 12 11 11 11 10 10 10 10 9 9 9
12 12 12 12 12 11 11 11 11 11 11 11 12 12 11 11 11 12 12 12 13 13 14 14 14 14 14 15 15 14 13 12 12 12 11 11 10 10 10 10 10 9 9 9

GEFSNGP_850_meantemp_018.txt.gz
Temperature
10 11 11 11 10 11 11 11 11 11 10 10 9 9 10 10 10 11 11 12 12 13 13 14 15 16 16 17 17 17 17 17 17 17 17 17 17 17 17 17 16 16 16 16
10 11 11 10 10 10 10 10 10 11 10 9 9 9 10 10 10 11 11 12 13 13 13 14 14 15 15 16 16 16 16 16 16 16 16 16 16 16 16 16 16 16 16 16
9 10 11 9 9 9 9 9 9 9 9 9 9 9 9 10 10 11 12 12 13 13 13 13 13 14 14 14 15 15 15 15 15 15 16 16 16 16 16 16 16 16 16 15
8 10 9 9 10 9 10 9 9 9 9 9 9 10 11 11 11 12 12 13 13 13 13 13 13 13 13 13 13 13 14 14 14 14 14 14 15 15 15 15 15 15 15 14
7 8 9 9 10 9 9 10 9 9 9 9 9 11 12 12 12 12 13 13 13 13 13 13 13 13 13 13 12 12 12 13 13 13 13 13 13 13 13 13 13 13 13 13
7 9 9 9 10 10 9 10 10 9 9 9 9 9 10 12 13 14 14 14 14 13 13 13 13 13 13 12 12 12 12 12 12 12 12 12 12 12 12 12 12 12 12 12
7 8 8 9 10 10 9 9 9 9 9 9 8 9 11 12 13 14 14 14 14 14 14 14 14 13 13 13 12 12 12 11 11 11 11 11 11 11 11 11 11 11 11 11
6 8 8 10 10 9 9 10 10 10 10 10 10 11 12 13 14 15 15 14 14 14 14 14 14 14 13 13 12 12 12 11 11 11 11 11 11 11 11 11 11 11 11 11
7 8 10 11 11 11 10 10 10 10 10 11 11 12 13 14 14 15 15 15 15 15 15 15 14 14 14 13 13 12 12 12 11 11 11 11 11 11 11 11 11 11 11 11
7 8 10 11 11 11 10 10 10 11 11 11 11 12 13 14 14 15 15 15 15 15 15 15 15 15 14 14 13 13 12 12 11 11 11 11 11 11 11 11 11 11 11 11
7 8 10 11 11 11 11 11 11 11 11 11 11 12 13 13 14 15 15 15 15 15 16 16 15 15 15 14 14 13 12 12 11 11 11 11 11 11 10 10 10 10 10 10
8 10 10 11 12 11 11 11 11 11 11 11 11 12 12 13 14 14 15 15 15 16 16 16 16 16 15 15 14 13 13 12 12 11 11 11 11 11 10 10 10 10 10 10
13 12 12 12 12 11 11 11 11 11 11 11 12 12 12 13 14 14 15 15 16 16 16 16 16 16 15 15 14 14 13 12 12 11 11 11 11 10 10 10 10 10 10 10
13 12 12 12 12 12 11 11 11 11 11 11 12 12 12 13 14 15 15 16 16 16 16 16 16 16 16 15 15 14 13 12 12 11 11 11 11 11 10 10 10 10 10 9
12 13 13 12 12 12 11 11 11 11 12 12 12 12 13 13 14 15 15 16 16 16 16 16 16 16 16 16 15 14 13 12 12 11 11 11 11 11 10 10 10 10 10 10
12 12 12 12 12 12 12 11 12 12 12 12 12 12 13 13 14 14 15 16 16 17 17 17 16 16 16 16 15 14 13 12 12 11 11 11 11 11 11 10 10 10 10 10
12 12 12 12 12 12 12 12 12 12 12 12 12 12 13 13 14 15 15 16 16 16 16 17 17 16 16 16 15 14 13 12 12 11 11 11 11 11 11 10 10 10 10 10
14 14 13 13 12 12 12 12 12 12 12 12 12 12 12 13 13 14 15 15 16 16 16 16 16 16 16 16 15 14 13 12 12 11 11 11 11 11 11 10 10 10 10 9
13 13 13 13 12 12 12 12 11 11 11 12 12 12 12 12 12 13 14 14 15 16 16 16 16 16 16 16 15 14 13 13 12 11 11 11 11 11 10 10 10 10 10 9
13 13 13 12 12 12 12 11 11 11 11 11 12 12 12 12 12 13 13 13 14 14 15 16 16 16 16 15 15 14 13 13 12 11 11 11 11 11 10 10 10 10 9 9
13 13 13 12 12 12 12 11 11 11 11 11 11 12 12 12 12 12 13 13 14 14 15 15 15 16 15 15 15 14 13 13 12 11 11 11 11 11 11 10 10 9 9 9
13 13 13 12 12 12 11 11 11 11 11 11 11 11 12 12 12 12 12 12 13 14 14 15 15 15 15 15 15 14 13 13 12 12 11 11 11 11 11 10 10 9 9 8
14 13 13 12 12 12 11 11 11 11 11 11 11 11 12 12 12 12 12 13 13 13 14 14 15 15 15 15 15 14 13 13 12 12 11 11 11 11 11 10 10 10 9 8
14 13 13 12 12 12 11 11 11 11 11 11 11 11 12 12 12 11 11 12 12 13 13 14 14 15 15 15 15 14 13 13 12 12 11 11 11 11 11 10 10 10 9 9
14 13 13 12 12 12 12 12 11 11 11 12 12 11 11 11 11 11 11 11 12 12 13 13 14 14 14 15 14 14 13 13 12 12 11 11 11 11 11 10 10 10 9 9
14 13 13 13 12 12 12 12 11 11 11 12 12 11 11 11 11 11 11 11 11 12 12 13 13 13 14 14 14 14 13 13 12 12 11 11 11 11 10 10 10 10 9 9
13 13 13 13 12 12 12 12 12 12 12 11 12 11 11 11 11 11 11 11 11 12 12 12 13 13 13 13 14 14 13 13 12 12 11 11 11 10 10 10 10 9 9 9

GEFSNGP_850_meantemp_024.txt.gz
Temperature
15 14 14 14 13 14 13 12 12 11 11 10 10 10 10 10 11 11 11 12 11 11 11 12 12 12 12 13 13 13 13 14 14 14 15 15 15 15 15 15 15 15 15 15
15 15 15 14 14 13 12 12 12 12 11 10 10 10 11 11 12 12 12 12 12 12 12 12 12 12 12 12 12 13 13 13 14 14 14 15 15 15 15 15 15 15 15 15
16 15 15 15 14 13 12 12 11 11 10 10 11 11 11 12 12 12 12 12 12 12 12 12 12 12 12 12 12 12 12 13 13 13 13 13 14 14 14 14 15 15 14 14
16 16 15 14 14 13 12 12 12 11 12 11 12 12 12 12 12 13 13 13 13 13 13 13 12 12 12 12 12 12 11 12 12 12 12 12 13 13 13 13 13 13 14 13
16 16 15 14 14 13 13 14 13 12 13 12 13 14 15 13 13 13 13 13 13 13 13 13 13 13 13 12 12 11 11 11 11 11 11 12 12 12 12 12 12 12 13 13
16 17 16 15 15 13 14 15 14 13 13 13 15 17 15 13 13 13 13 13 13 14 14 14 13 13 13 13 12 11 11 11 11 11 11 11 11 11 12 12 12 12 12 12
17 17 17 15 13 13 15 15 14 13 13 13 14 14 13 13 13 13 14 14 14 14 14 14 13 13 13 13 12 11 11 11 11 11 11 11 11 11 11 11 11 11 11 11
16 17 16 14 14 15 15 14 13 13 13 12 12 12 13 13 13 13 14 14 14 14 14 14 14 13 13 13 12 12 11 11 11 11 11 11 11 11 11 11 11 11 11 11
16 16 14 13 14 13 12 13 13 13 12 12 12 12 13 13 13 13 13 14 14 15 15 14 14 14 14 13 13 12 11 11 11 11 11 11 11 11 11 11 11 10 10 10
15 15 14 13 13 12 12 12 12 12 12 12 12 12 13 13 13 13 14 14 14 15 15 15 15 14 14 14 13 12 12 11 11 11 11 11 11 10 10 10 10 10 10 10
16 16 14 13 13 12 12 12 12 12 12 12 12 12 12 13 13 13 14 14 14 15 15 15 15 15 15 14 13 13 12 12 11 11 11 10 10 10 10 10 10 10 10 10
17 16 16 15 13 12 12 12 12 12 12 12 12 12 12 12 13 13 14 14 14 15 15 15 15 15 15 15 14 13 13 12 11 11 11 10 10 10 10 10 9 9 9 10
15 14 14 14 13 12 12 12 12 12 12 12 12 12 12 12 13 13 14 14 15 15 15 15 15 15 15 15 14 13 13 12 11 11 11 10 10 10 10 10 10 9 9 10
13 13 13 13 13 12 12 12 12 12 12 12 12 12 12 12 13 13 14 15 15 15 15 15 15 15 15 15 14 13 12 12 11 11 11 11 10 10 10 10 9 9 9 9
13 13 14 13 13 12 12 12 12 12 12 12 12 12 13 13 13 13 14 15 15 15 15 15 16 16 16 15 14 13 12 12 11 11 11 11 10 10 10 10 10 10 9 9
13 12 13 13 13 12 12 12 12 12 12 12 12 12 13 13 13 13 14 14 15 15 15 15 16 16 16 15 14 13 13 12 12 11 11 11 10 10 10 10 10 10 10 9
13 13 13 13 13 13 13 12 12 12 12 12 12 12 12 12 13 13 14 14 14 14 15 15 16 16 15 15 14 13 13 12 12 11 11 11 10 10 10 10 10 10 10 9
14 14 14 14 13 13 12 12 12 12 12 12 12 12 12 12 12 13 13 14 14 13 14 15 15 16 15 15 14 13 13 12 11 11 11 11 10 10 10 10 9 9 9 9
14 14 13 13 13 13 13 12 12 12 11 12 12 12 12 12 12 12 13 13 13 14 14 15 15 15 15 15 15 14 13 12 12 11 11 11 11 10 10 10 9 9 9 8
13 13 13 13 13 12 12 12 12 11 11 12 12 11 11 11 12 12 12 12 12 13 14 15 15 15 15 15 14 14 13 12 12 11 11 11 10 10 10 10 9 9 9 8
13 13 13 13 13 13 12 12 12 11 11 12 12 11 11 12 12 12 12 12 12 13 13 14 14 14 15 15 14 14 13 13 12 12 11 11 10 10 10 10 9 9 9 8
13 13 13 13 13 12 12 12 12 11 11 12 12 12 12 12 12 12 12 12 12 13 13 13 13 14 14 15 14 14 14 13 12 12 11 11 11 10 10 10 10 9 9 9
13 13 13 13 13 13 12 12 12 12 11 12 12 12 12 12 12 12 12 12 12 13 13 13 13 14 14 14 14 14 14 13 13 12 12 11 11 11 10 10 10 10 9 9
12 12 12 13 13 12 12 12 12 12 12 12 12 12 12 12 12 12 12 12 12 13 13 13 13 13 14 14 14 14 13 13 13 13 12 12 11 11 11 10 10 10 10 9
12 12 12 12 12 12 12 12 12 12 11 11 12 12 12 12 12 12 12 12 13 13 13 13 13 13 13 13 13 13 13 13 13 13 13 12 12 11 11 11 10 10 10 10
12 12 12 12 12 12 12 12 12 12 12 11 12 12 12 12 12 12 12 13 13 13 13 13 13 13 13 13 13 13 13 13 13 13 13 13 12 12 11 11 11 10 10 10
11 11 12 12 12 12 12 12 12 12 12 12 12 12 12 12 12 12 12 12 12 12 12 13 13 12 13 13 13 13 13 13 13 13 13 13 12 12 12 11 11 11 10 10

GEFSNGP_850_meantemp_030.txt.gz
Temperature
19 18 18 18 17 16 15 14 13 12 12 12 12 12 12 13 13 13 13 14 14 14 14 14 13 13 13 13 13 13 13 13 13 13 13 14 14 14 14 15 15 15 15 15
19 19 19 18 17 17 16 15 14 13 13 13 13 13 14 14 14 14 14 14 15 15 15 14 14 14 13 13 12 12 12 12 12 13 13 13 13 14 14 14 14 14 15 15
20 20 19 18 17 17 16 16 15 14 14 14 14 15 15 15 15 15 15 15 15 15 15 15 14 14 13 13 12 12 12 12 12 12 12 12 12 13 13 13 13 14 14 14
21 21 18 17 18 17 16 16 16 16 16 15 15 15 15 15 15 15 15 15 15 15 15 15 15 15 14 13 12 12 12 12 12 12 12 12 12 12 12 12 12 12 13 13
21 20 18 18 18 18 17 17 17 17 17 17 17 16 16 16 16 15 15 15 15 15 15 15 15 15 14 13 13 12 12 12 11 11 11 12 12 12 12 11 11 12 12 12
20 20 19 18 19 18 18 17 17 17 17 17 17 16 16 16 16 15 15 15 15 15 15 15 15 15 14 14 13 12 12 12 12 12 12 12 12 11 11 11 11 11 11 11
20 21 19 19 18 18 17 17 18 17 17 17 17 16 16 16 16 15 15 15 15 15 15 15 15 15 15 14 13 12 12 12 12 12 12 12 12 11 11 11 11 11 11 11
21 20 18 18 18 18 18 18 18 17 17 16 16 16 16 16 16 16 15 15 15 15 15 15 15 15 15 14 13 13 13 12 12 12 12 11 11 11 11 10 10 10 10 10
20 18 18 18 18 18 18 18 17 17 16 16 16 16 16 16 16 15 15 15 15 15 15 15 15 15 15 14 14 13 13 13 12 12 11 11 11 11 11 10 10 10 10 10
20 19 18 18 17 16 17 17 16 16 16 16 16 16 16 16 16 15 15 15 15 15 15 15 15 15 15 14 14 14 14 13 13 12 11 11 11 11 11 11 10 10 10 10
20 20 18 17 17 16 16 16 16 16 15 15 15 16 16 16 15 15 15 15 15 15 15 15 16 15 15 15 14 15 14 13 13 12 12 11 11 11 11 10 10 10 10 10
20 20 19 18 17 17 16 16 16 16 16 15 15 15 15 15 15 15 15 15 15 15 15 15 15 15 15 15 14 14 14 13 13 12 12 11 11 11 11 10 10 10 10 10
21 20 19 18 17 16 16 16 16 16 16 15 15 15 15 15 15 15 15 15 15 15 15 15 15 15 15 15 14 14 14 13 13 12 12 12 11 11 11 10 10 10 10 10
19 19 18 18 17 16 16 16 16 16 15 15 15 15 15 15 15 15 15 15 15 15 15 15 15 15 15 15 14 14 14 13 13 12 12 12 11 11 11 10 10 10 9 9
18 18 18 17 17 16 16 16 16 16 16 15 15 15 15 15 15 15 15 15 15 15 15 15 15 15 15 15 14 14 13 13 12 12 12 12 12 11 11 11 10 10 9 9
18 18 18 17 16 16 16 16 16 16 16 16 15 15 15 14 14 15 15 15 15 15 15 15 15 15 15 14 14 14 13 13 12 12 12 12 12 12 11 11 10 10 10 9
18 17 17 17 16 16 16 16 16 16 16 15 15 15 14 14 15 15 15 15 15 15 15 15 15 15 15 14 14 14 14 13 13 12 12 12 12 12 11 11 10 10 10 9
18 17 17 17 16 16 16 16 16 16 16 15 15 14 14 14 15 14 14 14 14 15 14 14 15 15 14 14 14 14 14 14 13 13 12 12 12 12 11 11 11 10 10 9
18 18 17 17 17 16 16 16 16 16 15 15 14 14 14 14 14 14 14 14 14 14 14 14 15 15 14 14 14 14 14 14 13 13 12 12 12 12 11 11 11 10 10 9
18 18 17 17 17 17 16 16 15 15 15 14 14 14 14 14 14 14 13 13 14 13 14 14 14 14 14 14 14 14 14 14 13 13 13 12 12 12 12 11 11 10 10 9
17 17 17 17 17 16 16 16 15 15 14 14 14 13 13 13 13 13 13 13 13 13 14 14 13 13 14 14 14 14 14 14 14 13 13 13 12 12 12 12 11 10 10 9
17 17 17 17 16 16 16 15 15 14 14 14 13 13 13 13 13 13 13 13 13 13 13 13 13 13 14 14 14 14 14 14 13 13 13 13 12 12 12 12 11 11 10 10
16 16 16 16 16 15 15 15 15 14 14 13 13 13 13 13 13 13 13 13 13 13 13 13 13 14 14 14 14 14 14 14 13 13 13 13 12 12 12 12 11 11 10 10
16 16 16 16 16 15 15 15 15 14 14 13 13 13 13 13 13 13 13 13 13 13 13 14 14 14 14 14 14 13 13 14 14 13 13 13 13 12 12 12 11 11 11 10
15 15 16 16 15 15 15 15 15 14 14 13 13 13 13 13 13 13 13 12 13 13 14 14 14 13 13 13 13 13 13 13 13 13 13 13 13 13 12 12 11 11 11 10
13 14 14 15 15 15 15 15 15 14 14 13 13 13 13 13 13 13 13 13 13 13 13 13 13 13 13 12 13 13 13 13 13 13 13 13 13 13 13 12 12 11 11 11
12 13 13 13 14 14 14 14 14 14 14 13 13 13 13 12 12 13 13 13 13 13 13 13 13 12 12 12 13 13 13 12 13 13 13 13 13 13 12 12 12 12 11 11